{"data":{"norad_id":60036,"intl_designator":"2024-111W","name":"STARLINK-31985","alt_names":[],"object_type":"PAYLOAD","status":"ACTIVE","operator":null,"country":"US","launch_date":"2024-06-08","launch_site_code":"AFETR","launch_vehicle":null,"mission":null,"orbit_class":"UNKNOWN","rcs_meters":null,"size_class":null,"mass_kg":null,"dimensions":null,"purposes":["comms"],"wikipedia_slug":null,"has_3d_model":false,"image_url":null,"decayed_at":null,"tle_current":{"epoch":"2026-05-25T02:50:38.178816Z","epoch_age_seconds":58657,"freshness":"FRESH","line1":"1 60036U 24111W   26145.11849744 -.00005485  00000+0 -17309-3 0  9996","line2":"2 60036  53.1605  80.7189 0000969  78.9249 281.1861 15.30219405110675","mean_motion":15.30219405,"eccentricity":9.69e-5,"inclination_deg":53.1605,"raan_deg":80.7189,"arg_perigee_deg":78.9249,"mean_anomaly_deg":281.1861,"bstar":-0.00017309,"rev_number":11067,"period_min":94.10415233886,"perigee_km":474.49304599817,"apogee_km":475.8212144006,"semimajor_km":6853.2941301994,"source":"CELESTRAK","updated_at":"2026-05-25T13:38:19.151405Z"}}}